Racine, WI

10:20 AM CDT on October 17, 2017 (GMT -0500)
Batten

Weather History for KRAC - November, 2013

Change the Weather History Date:

Wednesday, November 27, 2013

  Actual Average Record
Temperature  
Mean Temperature 19 °F -  
Max Temperature 28 °F 41 °F 66 °F (1990)
Min Temperature 10 °F 28 °F 1 °F (1977)
Degree Days  
Heating Degree Days 46    
Moisture  
Dew Point 8 °F    
Average Humidity 61    
Maximum Humidity 74    
Minimum Humidity 47    
Precipitation  
Precipitation 0.00 in - - ()
Sea Level Pressure  
Sea Level Pressure 30.23 in    
Wind  
Wind Speed 9 mph (WNW)    
Max Wind Speed 16 mph    
Max Gust Speed 23 mph    
Visibility 10 miles    
Events      
Averages and records for this station are not official NWS values.
T = Trace of Precipitation, MM = Missing Value Source: NWS Daily Summary

Daily Weather History Graph

Daily Weather History Graph

Search for Another Location

Airport or City:

Trip Planner

Search our weather history database for the weather conditions in past years. The results will help you decide how hot, cold, wet, or windy it might be!

Date:

Astronomy

Nov. 27, 2013 Rise Set
Actual Time 6:57 AM CST 4:19 PM CST
Civil Twilight 6:26 AM CST 4:51 PM CST
Nautical Twilight 5:51 AM CST 5:26 PM CST
Astronomical Twilight 5:17 AM CST 6:00 PM CST
Moon 12:52 AM CST (11/27) 1:03 PM CST (11/27)
Length of Visible Light 10h 24m
Length of Day
9h 21m
Waning Crescent, 31% of the Moon is Illuminated
Nov 27
Waning Crescent
Dec 2
New
Dec 9
First Quarter
Dec 17
Full
Dec 25
Last Quarter

Hourly Weather History & Observations

Time (CST) Temp. Windchill Dew Point Humidity Pressure Visibility Wind Dir Wind Speed Gust Speed Precip Events Conditions
12:53 AM 15.1 °F 2.5 °F 3.9 °F 61% 30.19 in 10.0 mi NW 10.4 mph - N/A   Scattered Clouds
1:53 AM 14.0 °F 2.0 °F 3.0 °F 62% 30.19 in 10.0 mi NW 9.2 mph - N/A   Clear
2:53 AM 12.9 °F 0.7 °F 3.9 °F 67% 30.20 in 10.0 mi NW 9.2 mph - N/A   Clear
3:53 AM 12.0 °F 0.5 °F 3.9 °F 70% 30.20 in 10.0 mi NW 8.1 mph - N/A   Clear
4:53 AM 12.0 °F 4.1 °F 3.9 °F 70% 30.22 in 10.0 mi NW 4.6 mph - N/A   Clear
5:53 AM 10.9 °F -0.8 °F 3.9 °F 73% 30.22 in 10.0 mi NW 8.1 mph - N/A   Clear
6:53 AM 10.9 °F -0.8 °F 3.9 °F 73% 30.23 in 10.0 mi NW 8.1 mph - N/A   Clear
7:53 AM 12.9 °F -0.2 °F 6.1 °F 74% 30.24 in 10.0 mi NW 10.4 mph - N/A   Clear
8:53 AM 17.1 °F 4.3 °F 8.1 °F 68% 30.25 in 10.0 mi NW 11.5 mph - N/A   Clear
9:53 AM 21.0 °F 10.6 °F 10.0 °F 63% 30.25 in 10.0 mi NW 9.2 mph - N/A   Clear
10:53 AM 23.0 °F 9.6 °F 10.9 °F 60% 30.22 in 10.0 mi WNW 16.1 mph 20.7 mph N/A   Clear
11:53 AM 25.0 °F 12.2 °F 10.9 °F 55% 30.21 in 10.0 mi NW 16.1 mph 23.0 mph N/A   Clear
12:53 PM 27.0 °F 15.2 °F 10.9 °F 51% 30.21 in 10.0 mi NW 15.0 mph 20.7 mph N/A   Clear
1:53 PM 28.0 °F 18.6 °F 10.0 °F 47% 30.20 in 10.0 mi NNW 10.4 mph 19.6 mph N/A   Clear
2:53 PM 27.0 °F 17.3 °F 10.0 °F 49% 30.22 in 10.0 mi NW 10.4 mph - N/A   Clear
3:53 PM 26.1 °F 17.6 °F 10.0 °F 51% 30.24 in 10.0 mi WNW 8.1 mph - N/A   Clear
4:53 PM 24.1 °F 18.2 °F 10.0 °F 55% 30.25 in 10.0 mi WNW 4.6 mph - N/A   Clear
5:53 PM 21.9 °F 15.7 °F 10.0 °F 60% 30.26 in 10.0 mi West 4.6 mph - N/A   Clear
6:53 PM 23.0 °F 15.8 °F 10.9 °F 60% 30.27 in 10.0 mi West 5.8 mph - N/A   Mostly Cloudy
7:53 PM 23.0 °F 15.8 °F 10.9 °F 60% 30.27 in 10.0 mi West 5.8 mph - N/A   Overcast
8:53 PM 23.0 °F 15.8 °F 10.9 °F 60% 30.26 in 10.0 mi West 5.8 mph - N/A   Overcast
9:53 PM 24.1 °F 18.2 °F 10.9 °F 57% 30.27 in 10.0 mi West 4.6 mph - N/A   Overcast
10:53 PM 24.1 °F 18.2 °F 12.0 °F 60% 30.27 in 10.0 mi WNW 4.6 mph - N/A   Overcast
11:53 PM 23.0 °F 17.0 °F 12.0 °F 63% 30.27 in 10.0 mi West 4.6 mph - N/A   Overcast